Regional Weather Roundup
Issued by NWS

Home | Current Version | Previous Version | Graphics & Text | Print | Product List | Glossary On
Versions: 1 2 3 4 5 6 7 8 9 10 11 12 13 14 15 16 17 18 19 20 21 22 23 24 25 26 27 28 29 30 31 32 33 34 35 36 37 38 39 40 41 42 43 44 45 46 47 48 49 50
000
ASUS43 KDMX 031207
RWRIA

WEATHER ROUNDUP FOR IOWA
NATIONAL WEATHER SERVICE DES MOINES IA
600 AM CST TUE MAR 03 2015

NOTE: "FAIR" INDICATES FEW OR NO CLOUDS BELOW 12,000 FEET WITH NO
SIGNIFICANT WEATHER AND/OR OBSTRUCTIONS TO VISIBILITY.

* - THESE STATIONS ARE NOT NWS STATIONS...THUS NOT UNDER NWS
QUALITY CONTROL.  THEY ALSO DO NOT REPORT WEATHER SUCH
AS PRECIPITATION OR FOG.

IAZ001>003-012>014-020>022-031>034-043>046-031300-
   NORTHWEST IOWA

CITY           SKY/WX    TMP DP  RH WIND       PRES   REMARKS
CARROLL *      CLOUDY    28  27  93 S13       29.67F WCI  18
CHEROKEE *     CLOUDY    26  25  96 CALM      29.68R FOG
DENISON *      CLOUDY    30  30 100 S8        29.65S FOG     WCI  23
LE MARS *      CLOUDY    28  27  93 S8        29.68S FOG     WCI  20
ORANGE CITY *  PTCLDY    27  21  80 CALM      29.65F
SHELDON *      CLOUDY    25  23  93 S8        29.65F WCI  16
SIOUX CITY     CLOUDY    30  25  81 S8        29.68S WCI  22
6HR MIN TEMP:  30; 6HR MAX TEMP:  31;

SPENCER        CLOUDY    26  21  81 SE5       29.67F WCI  20
6HR MIN TEMP:  25; 6HR MAX TEMP:  27;

STORM LAKE *   CLOUDY    25  25 100 SE8       29.66F FOG     WCI  16
$$

IAZ055>058-069>071-079>083-090>094-031300-
   SOUTHWEST IOWA

CITY           SKY/WX    TMP DP  RH WIND       PRES   REMARKS
ATLANTIC *     CLOUDY    30  30 100 S9G16     29.67S FOG     WCI  22
AUDUBON *      PTCLDY    30  27  86 S8        29.68S FOG     WCI  23
CLARINDA *     CLOUDY    34  34 100 S10       29.70F FOG     WCI  26
COUNCIL BLFS * CLOUDY    30  30 100 S9        29.65S FOG     WCI  22
CRESTON *      FOG       32  32 100 S14       29.68F VSB 3/4 WCI  22
HARLAN  *      CLOUDY    30  30 100 S8        29.70S FOG     WCI  23
LAMONI         CLOUDY    31  30  96 S15       29.71F FOG     WCI  20
6HR MIN TEMP:  29; 6HR MAX TEMP:  31; 6HR PCP:  0.02;

RED OAK *      CLOUDY    32  32 100 S9        29.67F FOG     WCI  24
SHENANDOAH *   CLOUDY    34  34 100 S9        29.69F FOG     WCI  26
$$

IAZ047>049-059>061-072>074-084-031300-
   CENTRAL IOWA

CITY           SKY/WX    TMP DP  RH WIND       PRES   REMARKS
AMES           CLOUDY    27  25  92 S8        29.71F FOG     WCI  19
6HR MIN TEMP:  26; 6HR MAX TEMP:  28;

ANKENY *       CLOUDY    30  28  93 SE12      29.70F WCI  21
CHARITON *     CLOUDY    30  30 100 S13       29.72F WCI  20
DES MOINES     FRZ DRZL  31  26  82 S12       29.71F WCI  22
6HR MIN TEMP:  30; 6HR MAX TEMP:  31; 6HR PCP: TRACE;

GRINNELL*      CLOUDY    28  27  93 SE15      29.73F FOG     WCI  17
KNOXVILLE *    CLOUDY    30  28  93 SE9       29.70F WCI  22
MARSHALLTOWN   CLOUDY    27  25  92 S18       29.71F FOG     WCI  14
6HR MIN TEMP:  25; 6HR MAX TEMP:  27; 6HR PCP: TRACE;

PELLA *        CLOUDY    30  30 100 SE6       29.74F FOG     WCI  24
PERRY *          N/A     30  28  93 S12       29.69F FOG     WCI  21
$$

IAZ004>006-015-016-023>025-035-036-031300-
   NORTH CENTRAL IOWA

CITY           SKY/WX    TMP DP  RH WIND       PRES   REMARKS
ALGONA *       CLOUDY    25  23  93 SE9       29.69F WCI  15
CLARION *      CLOUDY    25  25 100 SE9       29.70F WCI  15
ESTHERVILLE    CLOUDY    23  20  88 S8        29.67F WCI  14
6HR MIN TEMP:  22; 6HR MAX TEMP:  23;

FORT DODGE *   CLOUDY    28  21  74 S7        29.69F WCI  21
MASON CITY     CLOUDY    24  20  84 SE13      29.71F WCI  12
6HR MIN TEMP:  23; 6HR MAX TEMP:  24;

FOREST CITY *  CLOUDY    25  19  80 SE8       29.70F WCI  16
IOWA FALLS *   CLOUDY    27  23  86 S12       29.72F WCI  16
$$

IAZ007>011-017>019-026>030-037>042-050>054-066-031300-
   NORTHEAST IOWA

CITY           SKY/WX    TMP DP  RH WIND       PRES   REMARKS
CEDAR RAPIDS   FRZ RAIN  29  27  92 S17G23    29.75F WCI  17
6HR MIN TEMP:  24; 6HR MAX TEMP:  29; 6HR PCP:  0.24;

CHARLES CITY * CLOUDY    23  25 100 SE14      29.72F FOG     WCI  11
CLINTON *      CLOUDY    28  27  93 S18G24    29.86F WCI  16
DECORAH *      MIX PCPN  23  21  93 SE8G15    29.75F WCI  14
DUBUQUE        LGT SNOW  23  20  88 SE16      29.80R FOG     WCI  10
6HR MIN TEMP:  22; 6HR MAX TEMP:  24; 6HR PCP:  0.08;

MONTICELLO *   LGT SNOW  25  25 100 SE12      29.79F VSB 1   WCI  14
OELWEIN *      CLOUDY    23  23 100 SE15      29.73F FOG     WCI  10
WATERLOO       CLOUDY    25  24  96 SE9       29.73F FOG     WCI  15
6HR MIN TEMP:  24; 6HR MAX TEMP:  26; 6HR PCP:  0.01;

$$

IAZ064-065-067-068-078-031300-
   EAST CENTRAL IOWA

CITY           SKY/WX    TMP DP  RH WIND       PRES   REMARKS
DAVENPORT      FRZ RAIN  29  26  89 S16       29.84F FOG     WCI  17
6HR MIN TEMP:  25; 6HR MAX TEMP:  29; 6HR PCP:  0.32;

IOWA CITY      FRZ RAIN  30  27  88 S14       29.80F FOG     WCI  19
6HR MIN TEMP:  26; 6HR MAX TEMP:  30; 6HR PCP:  0.15;

MT. PLEASANT * CLOUDY    28  28  99 S14       29.83R FOG     WCI  17
MUSCATINE *    CLOUDY    30  28  93 S15       29.84F FOG     WCI  19
QUAD CITIES    FRZ RAIN  28  25  88 SE14G24   29.82F FOG     WCI  17
6HR MIN TEMP:  26; 6HR MAX TEMP:  29; 6HR PCP:  0.20;

$$

IAZ062-063-075>077-085>089-095>099-031300-
   SOUTHEAST IOWA

CITY           SKY/WX    TMP DP  RH WIND       PRES   REMARKS
BURLINGTON     CLOUDY    29  28  96 S13       29.82F FOG     WCI  19
6HR MIN TEMP:  27; 6HR MAX TEMP:  28; 6HR PCP:  0.02;

FAIRFIELD *    MIX PCPN  28  27  93 SE15      29.77F WCI  17
FORT MADISON * CLOUDY    28  27  93 S15       29.83F FOG     WCI  17
KEOKUK *       CLOUDY    28  28 100 S8G17     29.82F FOG     WCI  20
OSKALOOSA *    MIX PCPN  29  27  93 S10       29.76R WCI  20
CENTERVILLE *  CLOUDY    30  30 100 S12       29.74S WCI  21
OTTUMWA        MIX PCPN  29  27  92 S14       29.78S FOG     WCI  18
6HR MIN TEMP:  28; 6HR MAX TEMP:  29; 6HR PCP:  0.08;

WASHINGTON *   LGT RAIN  30  30 100 S14G23    29.81F WCI  20
$$

ABBREVIATIONS USED IN REMARKS
   TC - TEMPERATURES IN CELSIUS
  WCI - WIND CHILL INDEX
   HX - HEAT INDEX
  VSB - VISIBILITY
$$




USA.gov is the U.S. government's official web portal to all federal, state and local government web resources and services.